Location: Gallinara
(44.0333°N, 8.2333°E)
Time: 00:54:09
(UTC+00:00)

H-2A R/B - Pass Details

Date: 25 September 2020
Orbit: 577 x 655 km, 98.5° (Epoch: 31 October)

Event Time Altitude Azimuth Distance (km) Brightness Sun altitude
Rises 02:30:42 0° 141° (SE) 2,913 5.6 -29.5°
Reaches altitude 10° 02:33:01 10° 132° (SE) 2,022 4.9 -29.2°
Maximum altitude 02:36:59 34° 68° (ENE) 1,073 3.7 -28.6°
Drops below altitude 10° 02:41:02 10° 4° (N) 2,066 5.1 -27.9°
Sets 02:43:25 0° 355° (N) 2,988 5.9 -27.6°
